Flag for France Weather past 2 weeks in Brest, France

Now
36 °F

Clear.


Feels Like: 29 °F
Forecast: 26 / 42 °F
Wind: 8 mph from East

Location: Brest Airport

Current Time: Dec 28, 2014 at 9:57:27 PM

Latest Report: Dec 28, 2014 at 9:30 PM


Visibility: 10 mi

Pressure: 30.60 "Hg

Humidity: 70%

Dew point: 27 °F

Location of BrestLocation

Historic Weather in Brest — Graph

°F

Brest temperature yesterday

Maximum temperature yesterday: 52 °F (at 12:00 AM)
Minimum temperature yesterday: 39 °F (at 10:00 PM)
Average temperature yesterday: 46 °F

Past Weeks' High & Low Weather Summary

 TemperatureHumidityPressure
High55 °F (Dec 19, 11:00 AM)100% (Dec 15, 7:00 PM)30.60 "Hg (Dec 15, 7:00 PM)
Low32 °F (Dec 14, 12:30 AM)57% (Dec 28, 1:00 PM)29.89 "Hg (Dec 15, 7:00 PM)
Average49 °F84%30.22 "Hg
* Reported Dec 13 8:00 PM — Dec 28 8:30 PM, Brest, Weather by CustomWeather, © 2014

Note: Actual official high and low records may vary slightly from our data, if they occured in-between our weather recording intervals... More about our weather records

Advertising

Brest weather history for previous 24 hours

 ConditionsComfort  
Time TempWeatherWind HumidityBarometerVisibility
8:30 PM
Dec 28
36 °FClear.5 mph75%30.57 "Hg10 mi
8:00 PM37 °FClear.3 mph70%30.57 "Hg10 mi
7:30 PM37 °FClear.3 mph75%30.54 "Hg10 mi
7:00 PM37 °FPassing clouds.6 mph75%30.54 "HgN/A
6:30 PM39 °FPassing clouds.6 mph70%30.51 "HgN/A
6:00 PM41 °FPassing clouds.9 mph66%30.51 "HgN/A
5:30 PM41 °FPassing clouds.12 mph70%30.48 "HgN/A
5:00 PM43 °FPassing clouds.14 mph66%30.45 "HgN/A
4:30 PM43 °FPassing clouds.16 mph66%30.45 "HgN/A
4:00 PM45 °FPassing clouds.17 mph61%30.42 "HgN/A
3:30 PM45 °FPassing clouds.18 mph57%30.42 "HgN/A
3:00 PM45 °FPassing clouds.15 mph61%30.42 "HgN/A
2:30 PM45 °FScattered clouds.14 mph61%30.42 "HgN/A
2:00 PM46 °FScattered clouds.16 mph57%30.42 "HgN/A
1:30 PM45 °FPassing clouds.16 mph57%30.39 "HgN/A
1:00 PM45 °FPassing clouds.16 mph57%30.39 "HgN/A
12:30 PM45 °FPassing clouds.18 mph61%30.36 "HgN/A
12:00 PM45 °FPassing clouds.13 mph61%30.36 "HgN/A
11:30 AM45 °FPassing clouds.14 mph66%30.33 "HgN/A
11:00 AM43 °FPassing clouds.10 mph66%30.33 "HgN/A
10:30 AM41 °FPassing clouds.8 mph70%30.30 "HgN/A
10:00 AM41 °FPassing clouds.10 mph70%30.27 "HgN/A
9:30 AM39 °FPassing clouds.9 mph75%30.27 "HgN/A
9:00 AM39 °FPassing clouds.10 mph81%30.24 "HgN/A
8:30 AM41 °FSprinkles. Partly cloudy.9 mph76%30.21 "HgN/A
8:00 AM41 °FPassing clouds.13 mph76%30.18 "HgN/A
7:30 AM41 °FPassing clouds.8 mph76%30.18 "HgN/A
7:00 AM41 °FPartly cloudy.8 mph76%30.15 "HgN/A
6:30 AM41 °FPartly cloudy.7 mph76%30.12 "HgN/A
6:00 AM41 °FPassing clouds.8 mph76%30.12 "HgN/A
5:30 AM41 °FPassing clouds.7 mph76%30.09 "HgN/A
4:30 AM41 °FSnow flurries. Passing clouds.12 mph76%30.07 "HgN/A
4:00 AM41 °FPartly cloudy.9 mph76%30.07 "HgN/A
3:30 AM41 °FPassing clouds.8 mph76%30.04 "HgN/A
3:00 AM41 °FPartly cloudy.12 mph76%30.01 "HgN/A
2:30 AM41 °FPartly cloudy.12 mph81%30.01 "HgN/A
2:00 AM41 °FPartly cloudy.9 mph81%29.98 "HgN/A
1:30 AM41 °FPassing clouds.10 mph76%29.98 "HgN/A
1:00 AM41 °FPassing clouds.10 mph81%29.98 "HgN/A
12:30 AM39 °FPassing clouds.7 mph81%29.98 "HgN/A
12:00 AM41 °FPassing clouds.21 mph81%29.98 "HgN/A
11:30 PM
Dec 27
41 °FPartly cloudy.12 mph87%29.95 "HgN/A
11:00 PM41 °FSnow flurries. Partly cloudy.15 mph81%29.95 "Hg3 mi
10:30 PM39 °FPartly cloudy.10 mph81%29.95 "HgN/A
10:00 PM39 °FPassing clouds.15 mph87%29.95 "HgN/A
9:30 PM45 °FPartly cloudy.12 mph66%29.92 "HgN/A
9:00 PM45 °FPassing clouds.17 mph66%29.92 "HgN/A
Weather by CustomWeather, © 2014

See weather overviewHow to use our weather pages